VIKING

Satellite information

Favourite Embed

Satellite Type and Status

PAYLOADIN ORBIT

Key statistics

Satellite VIKING at a glance.

Uptime

14318

Days in orbit

Revolutions

≈ 5.5

Per day

Orbit

HEO

HEO

Inclination

98.7

Latest

Satellite identification and parameters

Extended collection of information and parameters for VIKING.

Object identification

Identified? True

Debris? False

Object name: VIKING

International designator: 1986-019B

Object number (NORAD): 16614

Object ID (CCSDS): 16614

Country: SWEDEN (SWED)

Current information (Y/N): Y

RCS size: LARGE

Orbital parameters

Period: 261.542 minutes

Inclination: 98.7174 deg

SMA: 13547.351 km

Apoapsis: 13516.344 km

Periapsis: 822.087 km

RAAN: 182.7909 deg

Eccentricy: 0.4685144

Argument of periapsis: 99.4826 deg

Mean anomaly: 28.4644 deg

Mean motion: 5.50580981 rev/day

Mean motion (dot): 0.00000075 rev/day2

B* drag term: 0.00041805 1/REarth

Two-line elements (TLE)

Creation date: May 6, 2025, 3:54 a.m.

Reference frame: TEME

Reference center: EARTH

Epoch: May 5, 2025, 10:58 p.m. UTC

TLE line 0: 0 VIKING

TLE line 1: 1 16614U 86019B 25125.95706300 .00000075 00000-0 41805-3 0 9990

TLE line 2: 2 16614 98.7174 182.7909 4685144 99.4826 28.4644 5.50580981787834

Live tracking on map

Real-time ground track for satellite VIKING.

In-orbit conjunctions

There are no conjunctions computed for VIKING, at the moment. Check back to stay up to date, as we update our databases every day.

Go to all conjunctions

Associated space launch

SPOT 1 is a French Earth observation satellite. Viking is Sweden's first satellite.

VIKING was lifted into orbit during the mission ‘Ariane 1 | SPOT 1 & Viking’, on board a Ariane 1 space rocket.

The launch took place on Feb. 22, 1986, 1:44 a.m. from Ariane Launch Area 1 (ELV).

For more information about the launch, click the button.

Launch to space Ariane 1 | SPOT 1 & Viking
Ariane 1 | SPOT 1 & Viking

Agency: N/A

Status: Launch Successful

Launch date: Feb. 22, 1986, 1:44 a.m. UTC

Rocket: Ariane 1

Launch pad: Ariane Launch Area 1 (ELV)

Location: Guiana Space Centre, French Guiana

...

Latest news about this satellite

There are no fresh news available about this satellite. Check back as we update our databases every day.


Newsletter sign-up

Weekly statistics, charts and insights to help you stay on top of the space industry.